Location: Bemmer
(51.5498°N, 5.6249°E)
Time: 01:11:50
(UTC+00:00)

FALCON 9 DEB - Pass Details

Date: 03 March 2021
Orbit: 367 x 387 km, 53.0° (Epoch: 12 April)

Event Time Altitude Azimuth Distance (km) Brightness Sun altitude
Rises 19:29:49 0° 284° (WNW) 2,292 8.4 -20.6°
Reaches altitude 10° 19:31:54 10° 285° (WNW) 1,433 6.9 -20.9°
Enters shadow 19:34:36 60° 295° (WNW) 455 3.4 -21.3°
